Total_Precipitation_Accumulation
0.91 0.92 0.89 0.95 0.93 0.94 1.00 0.97 0.85 0.86 0.81 0.69 0.68 0.72 0.79 0.81 0.94 1.04 1.25 1.67 2.24 2.79 2.94 2.75 2.35 2.09 2.01 2.01 1.94 1.93 1.90 1.95 2.11 2.30 2.20 2.08 2.12 2.12 2.07 2.32 2.47 2.70 2.86
0.75 0.87 0.88 0.97 0.93 0.97 1.05 0.94 0.87 0.90 0.89 0.78 0.74 0.77 0.78 0.81 0.89 1.03 1.16 1.41 1.76 2.35 2.94 3.07 2.79 2.46 2.24 2.25 2.25 2.28 2.09 1.96 2.00 2.23 2.28 2.11 2.09 2.04 2.02 2.16 2.39 2.52 2.81
0.70 0.83 0.92 0.96 0.96 0.98 1.00 1.02 1.01 0.96 0.89 0.83 0.84 0.82 0.79 0.82 0.99 1.10 1.15 1.30 1.36 1.49 2.09 2.80 3.05 2.90 2.67 2.67 2.60 2.47 2.31 2.15 2.02 2.11 2.24 2.13 2.03 1.86 1.95 2.01 2.06 2.07 2.40
0.75 0.97 1.06 0.97 1.02 1.12 1.16 1.20 1.16 1.08 1.01 1.00 1.03 1.00 0.92 0.96 1.13 1.20 1.15 1.11 1.17 1.11 1.30 1.73 2.14 2.45 2.76 2.90 2.91 2.73 2.52 2.35 2.07 2.03 2.07 2.06 1.93 1.72 1.75 1.84 1.87 1.91 2.03
0.95 1.14 1.23 1.13 1.11 1.27 1.27 1.18 1.23 1.28 1.23 1.26 1.20 1.22 1.17 1.18 1.18 1.12 1.10 1.16 1.21 1.20 1.24 1.14 1.31 1.63 2.22 2.71 3.05 3.23 2.95 2.75 2.44 2.24 2.14 1.96 1.82 1.71 1.69 1.72 1.74 1.76 1.80
1.17 1.34 1.46 1.44 1.38 1.52 1.55 1.44 1.57 1.63 1.55 1.59 1.46 1.39 1.34 1.31 1.25 1.22 1.20 1.28 1.39 1.30 1.31 1.20 1.15 1.04 1.36 1.93 2.59 3.10 3.13 3.04 2.82 2.47 2.28 1.93 1.80 1.66 1.61 1.62 1.64 1.66 1.70
1.57 1.70 1.69 1.92 1.98 1.97 2.01 1.97 2.15 2.20 1.92 1.78 2.13 2.08 1.67 1.35 1.23 1.30 1.39 1.44 1.56 1.58 1.53 1.46 1.38 1.17 1.08 1.28 1.76 2.69 3.03 3.00 2.86 2.61 2.51 2.24 1.92 1.73 1.63 1.63 1.67 1.62 1.67
1.93 1.85 1.94 2.19 2.25 2.37 2.47 2.33 2.49 2.60 2.30 2.01 2.46 2.95 2.52 2.03 1.41 1.18 1.30 1.47 1.64 1.68 1.62 1.49 1.47 1.42 1.31 1.31 1.35 1.95 2.54 2.91 2.90 2.75 2.65 2.57 2.16 1.91 1.73 1.69 1.69 1.64 1.58
2.34 2.21 2.15 2.30 2.35 2.46 2.68 2.73 2.69 2.82 2.77 2.42 2.38 2.96 2.94 2.53 2.09 1.53 1.35 1.43 1.63 1.75 1.81 1.78 1.61 1.59 1.50 1.53 1.60 1.51 1.70 2.20 2.66 2.73 2.63 2.60 2.41 2.12 1.85 1.75 1.76 1.68 1.50
2.51 2.44 2.38 2.46 2.51 2.52 2.64 2.70 2.69 2.96 3.19 2.93 2.63 2.41 2.37 2.39 2.43 2.05 1.63 1.48 1.63 1.76 1.91 1.83 1.85 1.90 1.85 1.80 1.78 1.53 1.38 1.53 1.99 2.44 2.59 2.67 2.54 2.27 2.00 1.88 1.92 1.79 1.66
2.28 2.20 2.30 2.47 2.51 2.53 2.53 2.71 2.82 3.06 3.10 3.04 2.92 2.76 2.56 2.39 2.03 2.11 2.04 1.77 1.71 1.65 1.80 1.98 2.06 2.10 2.03 2.13 2.21 1.73 1.38 1.30 1.57 2.02 2.45 2.67 2.74 2.65 2.36 2.08 1.99 1.99 1.98
2.13 2.03 2.11 2.20 2.30 2.38 2.36 2.42 2.59 2.76 2.98 3.12 3.06 2.88 2.82 2.75 2.52 2.34 2.05 1.89 1.96 1.82 1.73 1.77 1.90 1.99 2.13 2.19 2.08 1.91 1.46 1.29 1.39 1.52 1.79 2.27 2.63 2.84 2.74 2.56 2.40 2.26 2.27
2.08 2.06 1.99 2.03 2.08 2.15 2.25 2.44 2.46 2.53 2.72 2.91 2.92 2.85 2.84 2.68 2.58 2.60 2.36 2.00 1.91 1.81 1.74 1.70 1.68 1.77 1.88 1.98 2.02 1.94 1.52 1.40 1.32 1.28 1.25 1.35 1.76 2.26 2.67 2.86 2.85 2.63 2.62
1.69 1.67 1.72 1.82 1.95 2.04 2.12 2.28 2.37 2.37 2.43 2.49 2.51 2.67 2.76 2.66 2.45 2.38 2.39 2.44 2.18 1.93 1.75 1.64 1.58 1.61 1.69 1.71 1.85 1.88 1.45 1.30 1.22 1.14 1.08 0.97 1.06 1.34 1.81 2.24 2.39 2.47 2.67
1.28 1.31 1.38 1.52 1.72 1.84 1.89 2.00 2.18 2.18 2.24 2.22 2.26 2.33 2.36 2.44 2.32 2.16 2.13 2.23 2.36 2.15 1.97 1.78 1.59 1.41 1.48 1.48 1.57 1.38 1.32 1.26 1.12 1.05 1.00 0.91 0.85 0.92 1.19 1.58 1.73 1.66 1.72
1.19 1.26 1.28 1.35 1.48 1.56 1.65 1.81 1.94 2.03 2.08 2.05 2.03 2.09 2.14 2.19 2.21 2.19 2.16 2.18 2.17 2.11 2.01 1.81 1.54 1.29 1.34 1.40 1.56 1.34 1.37 1.47 1.25 1.08 0.96 0.94 0.91 0.87 0.93 1.09 1.19 1.10 1.05
1.22 1.26 1.30 1.33 1.34 1.42 1.47 1.57 1.70 1.84 1.86 1.88 1.77 1.81 1.92 2.00 2.19 2.23 2.20 2.17 2.15 2.05 1.91 1.81 1.57 1.36 1.34 1.40 1.47 1.37 1.40 1.41 1.25 1.18 1.07 1.00 0.90 0.94 0.98 1.01 1.09 1.02 0.88
1.09 1.16 1.26 1.22 1.21 1.25 1.34 1.44 1.53 1.59 1.68 1.65 1.55 1.57 1.68 1.76 1.91 2.02 2.13 2.04 2.04 2.01 1.99 1.93 1.71 1.51 1.44 1.43 1.48 1.44 1.32 1.30 1.29 1.32 1.20 1.12 1.02 0.94 0.99 0.99 1.09 1.15 1.06
1.00 1.11 1.22 1.32 1.23 1.12 1.22 1.31 1.35 1.37 1.38 1.33 1.32 1.37 1.43 1.51 1.64 1.75 1.86 1.95 1.96 1.90 1.99 1.96 1.76 1.57 1.44 1.38 1.40 1.38 1.32 1.38 1.30 1.35 1.29 1.19 1.15 1.06 1.06 1.05 1.04 1.13 1.14
0.82 0.88 1.02 1.13 1.16 1.11 1.07 1.08 1.11 1.27 1.26 1.17 1.08 1.07 1.10 1.14 1.27 1.41 1.53 1.67 1.83 1.95 2.02 2.04 1.89 1.64 1.45 1.39 1.44 1.48 1.48 1.41 1.43 1.34 1.35 1.32 1.31 1.26 1.17 1.16 1.06 1.04 1.12
0.71 0.77 0.93 1.08 1.12 1.12 1.13 1.13 1.06 1.10 1.16 1.17 1.09 0.97 0.90 0.91 1.01 1.10 1.19 1.46 1.66 1.82 1.96 2.03 1.95 1.76 1.58 1.48 1.43 1.43 1.51 1.61 1.62 1.47 1.42 1.34 1.30 1.15 1.04 1.07 1.06 0.99 0.98
0.70 0.70 0.78 0.93 1.05 1.01 1.18 1.23 1.15 1.05 1.06 1.05 1.05 1.03 1.02 0.97 0.85 0.81 0.87 1.04 1.29 1.50 1.69 1.82 1.85 1.70 1.52 1.48 1.52 1.52 1.52 1.59 1.65 1.49 1.46 1.53 1.45 1.30 1.15 1.05 1.11 1.04 0.98
0.67 0.66 0.72 0.84 0.98 1.12 1.17 1.03 1.11 1.11 1.05 1.06 1.02 1.02 1.04 1.01 1.05 0.94 0.88 0.87 0.90 1.08 1.33 1.55 1.58 1.53 1.59 1.52 1.48 1.44 1.42 1.42 1.44 1.46 1.49 1.53 1.50 1.37 1.19 1.12 1.22 1.15 1.09
0.68 0.69 0.72 0.77 0.85 1.07 1.15 1.01 1.19 1.20 1.18 1.15 1.11 1.11 1.14 1.16 1.10 1.22 1.18 1.07 0.99 0.98 1.08 1.04 1.14 1.43 1.56 1.58 1.58 1.59 1.63 1.53 1.45 1.42 1.39 1.43 1.36 1.29 1.17 1.09 1.15 1.10 1.04
0.70 0.69 0.67 0.67 0.70 0.81 0.92 0.88 1.01 1.13 1.23 1.23 1.11 1.09 1.13 1.14 1.34 1.39 1.26 1.21 1.13 1.07 1.21 1.23 1.26 1.33 1.41 1.42 1.42 1.50 1.55 1.51 1.44 1.36 1.29 1.22 1.17 1.25 1.28 1.18 1.15 1.21 1.16
0.76 0.68 0.64 0.61 0.62 0.64 0.80 0.67 0.76 0.91 1.10 1.23 1.17 1.10 1.27 1.22 1.24 1.19 1.12 1.28 1.24 1.12 1.03 0.99 1.00 1.06 1.09 1.15 1.22 1.25 1.40 1.43 1.36 1.36 1.24 1.19 1.15 1.22 1.28 1.19 1.08 1.07 1.12